Tracking 27188 objects as of 1-Apr-2023
HD Live streaming from Space Station
objects crossing your sky now

DELTA R/B(1)

Track DELTA R/B(1) now!
10-day predictions


NORAD ID: 25619
Int'l Code: 1999-003B
Perigee: 292.7 km
Apogee: 3,903.3 km
Inclination: 22.5 °
Period: 129.3 minutes
Semi major axis: 8468 km
RCS: 10.5824 m2 (large)
Launch date: February 7, 1999
Source: United States (US)
Launch site: AIR FORCE EASTERN TEST RANGE (AFETR)

Note: This is a ROCKET BODY
Your satellite tracking list
Your tracking list is empty




NASA's NSSDC Master Catalog

Two Line Element Set (TLE):
1 25619U 99003B   23090.44575657  .00054638 -50434-5  18865-2 0  9999
2 25619  22.4595  80.3687 2131666 329.7567  19.5074 11.13928267887502
Source of the keplerian elements: AFSPC